[[{"header":{"parameterUnit":"m.s-1","parameterCategory":1,"la1":30.2991,"la2":30.254,"lo1":-89.0895,"lo2":-89.0444,"dy":0.0017,"dx":0.0017,"nx":28,"ny":28,"refTime":"2024-05-15T21:00:00:Z","depth":0,"parameterNumber":2,"parameterNumberName":"U-component_of_WINDS"},"data":[0,0,0,0,0,0,0,0,0,0,0,0,0,0,0,0,0,0,0,0,0,0,0,0,0,0,0,0,0,0,0,0,0,0,0,0,0,0,0,0,0,0,0,0,0,0,0,0,0,0,0,0,0,0,0,0,0,0,-3.595,-3.5951,0,-3.5978,-3.5978,-3.5978,-3.5949,-3.5948,-3.5947,-3.5946,-3.5972,-3.5974,-3.5976,0,0,0,0,0,0,0,0,0,0,0,0,0,-3.5872,-3.5873,-3.595,-3.5951,-3.5951,-3.5978,-3.5978,-3.5978,-3.595,-3.5948,-3.5947,-3.5946,-3.5972,-3.5974,-3.5976,0,0,0,0,0,0,0,0,0,0,0,0,0,-3.5903,-3.5874,-3.595,-3.594,-3.5939,-3.5978,-3.5978,-3.5978,-3.595,-3.5948,-3.5947,-3.5945,-3.5971,-3.5974,-3.5976,-3.6025,0,0,-3.5984,-3.5985,0,0,0,0,0,0,0,0,-3.5901,-3.5906,-3.5941,-3.5941,-3.594,-3.5959,-3.596,-3.5994,-3.595,-3.5946,-3.5946,-3.5944,-3.5969,-3.5972,-3.598,-3.6027,-3.6028,-3.5984,-3.5986,-3.5987,-3.5988,0,0,0,0,0,0,0,-3.5899,-3.5905,-3.5961,-3.5942,-3.5941,-3.5933,-3.5936,-3.5966,-3.5966,-3.5946,-3.5944,-3.5948,-3.5968,-3.5978,-3.5981,-3.6028,-3.5984,-3.5987,-3.5988,-3.5989,-3.6115,-3.6117,0,0,0,0,0,0,-3.5898,-3.5903,-3.596,-3.5962,-3.5916,-3.5936,-3.5939,-3.5954,-3.5966,-3.5966,-3.5949,-3.5946,-3.5974,-3.5978,-3.5982,-3.6039,-3.5987,-3.5989,-3.5991,-3.6113,-3.6115,-3.6117,0,0,0,0,0,0,-3.5897,-3.5904,-3.5959,-3.5932,-3.5938,-3.5939,-3.5956,-3.5956,-3.5965,-3.5968,-3.5968,-3.5959,-3.5973,-3.5978,-3.6015,-3.6039,-3.5991,-3.5993,-3.6111,-3.6114,-3.6116,-3.6154,0,0,0,0,0,0,-3.5895,-3.5903,-3.5922,-3.5933,-3.594,-3.5992,-3.5958,-3.5957,-3.597,-3.5966,-3.5977,-3.5978,-3.5972,-3.6011,-3.6017,-3.6042,-3.5995,-3.6109,-3.6112,-3.6116,-3.615,-3.6157,-3.6164,0,0,0,0,0,-3.5892,-3.5932,-3.5923,-3.593,-3.5964,-3.5994,-3.5998,-3.5991,-3.5972,-3.5991,-3.5993,-3.5977,-3.6036,-3.6015,-3.6022,-3.6047,-3.6107,-3.6111,-3.6115,-3.6147,-3.6156,-3.6163,0,0,0,0,0,0,-3.5923,-3.5933,-3.5924,-3.5968,-3.598,-3.5989,-3.6012,-3.6001,-3.6018,-3.6014,-3.6005,-3.6008,-3.6046,-3.6051,-3.6027,-3.6095,-3.6068,-3.6074,-3.609,-3.6099,-3.6105,-3.6102,-3.5997,0,0,0,0,0,-3.5936,-3.596,-3.5966,-3.6005,-3.6011,-3.6011,-3.6024,-3.6018,-3.603,-3.6035,-3.6039,-3.6051,-3.6072,-3.6086,-3.6106,-3.6152,-3.6153,-3.6173,-3.618,-3.6185,-3.6189,-3.6213,-3.6221,-3.6131,-3.6131,-3.613,0,0,-3.5961,-3.5969,-3.5984,-3.6011,-3.602,-3.6044,-3.6015,-3.6042,-3.606,-3.6039,-3.6073,-3.6077,-3.609,-3.6131,-3.615,-3.6136,-3.6215,-3.619,-3.6194,-3.6196,-3.6218,-3.6226,-3.6234,-3.6133,-3.6133,-3.6132,0,0,-3.6018,-3.6028,-3.606,-3.607,-3.6084,-3.6083,-3.6091,-3.6102,-3.6104,-3.6139,-3.6123,-3.6144,-3.618,-3.619,-3.6199,-3.6262,-3.6247,-3.6269,-3.6302,-3.6325,-3.6332,-3.6338,-3.6359,-3.6366,-3.6273,-3.6273,-3.6273,0,-3.6047,-3.6084,-3.6078,-3.6106,-3.6118,-3.6101,-3.6133,-3.6143,-3.6162,-3.617,-3.6156,-3.6201,-3.6209,-3.6251,-3.6266,-3.6276,-3.6283,-3.6266,-3.6332,-3.6338,-3.6343,-3.6363,-3.6371,-3.6276,-3.6275,-3.6275,-3.6275,0,-3.6118,-3.6143,-3.6168,-3.6188,-3.6203,-3.6233,-3.6231,-3.6247,-3.624,-3.6241,-3.6276,-3.6285,-3.6306,-3.6316,-3.6309,-3.6358,-3.6349,-3.6333,-3.6305,-3.6354,-3.6372,-3.638,-3.6279,-3.6278,-3.6277,-3.6277,0,0,-3.6194,-3.6211,-3.622,-3.6228,-3.6243,-3.6262,-3.6292,-3.6313,-3.6325,-3.634,-3.6363,-3.6396,-3.6381,-3.6392,-3.6387,-3.6408,-3.6454,-3.6389,-3.6389,-3.6399,-3.6506,-3.6516,-3.6525,-3.6446,-3.6448,-3.6449,-3.6504,0,-3.625,-3.6301,-3.6297,-3.6345,-3.6368,-3.6353,-3.6378,-3.639,-3.6392,-3.6411,-3.6413,-3.6435,-3.6416,-3.6422,-3.6442,-3.6445,-3.6475,-3.6441,-3.6466,-3.6467,-3.6461,-3.6534,-3.6545,-3.6597,-3.6512,-3.6513,-3.6514,0,-3.6322,-3.634,-3.639,-3.6401,-3.641,-3.6433,-3.6452,-3.6471,-3.6484,-3.6484,-3.6497,-3.6488,-3.6517,-3.6491,-3.653,-3.6506,-3.6517,-3.652,-3.6522,-3.6522,-3.6492,-3.6534,-3.6613,-3.662,-3.6525,-3.6524,-3.6523,0,-3.637,-3.6406,-3.6441,-3.6449,-3.6463,-3.648,-3.6486,-3.6497,-3.651,-3.6527,-3.6535,-3.6554,-3.6564,-3.658,-3.6576,-3.6558,-3.6615,-3.6589,-3.6615,-3.6615,-3.6625,-3.6624,-3.6705,-3.6636,-3.6636,-3.6636,-3.6636,0,-3.6432,-3.6463,-3.6462,-3.6483,-3.6517,-3.6513,-3.6546,-3.6551,-3.6562,-3.6583,-3.6572,-3.6591,-3.6587,-3.6607,-3.6604,-3.6636,-3.6641,-3.6641,-3.664,-3.6641,-3.664,-3.6646,-3.6641,-3.6638,-3.6638,-3.6637,-3.6637,0,-3.649,-3.6491,-3.6528,-3.6539,-3.6542,-3.6567,-3.6576,-3.6595,-3.6597,-3.6624,-3.663,-3.6632,-3.6655,-3.6654,-3.668,-3.6678,-3.6716,-3.6712,-3.6712,-3.671,-3.6735,-3.6732,-3.682,-3.683,-3.6757,-3.6758,-3.6758,0,-3.6528,-3.6552,-3.6566,-3.6579,-3.6587,-3.6609,-3.6622,-3.6619,-3.6633,-3.665,-3.6667,-3.6689,-3.6706,-3.6743,-3.6746,-3.6765,-3.676,-3.679,-3.6763,-3.6763,-3.6758,-3.6756,-3.6757,-3.6794,-3.6795,-3.6796,-3.6796,0,-3.6596,-3.6595,-3.6615,-3.6635,-3.6651,-3.6666,-3.6681,-3.6692,-3.6691,-3.6707,-3.673,-3.6743,-3.677,-3.6791,-3.681,-3.6816,-3.6805,-3.6805,-3.6812,-3.6812,-3.681,-3.6809,-3.6724,-3.6802,-3.6802,-3.6801,-3.6801,-3.6801,-3.6644,-3.6663,-3.6676,-3.6698,-3.6709,-3.6722,-3.6741,-3.6746,-3.6765,-3.6786,-3.6784,-3.6809,-3.6821,-3.6845,-3.6854,-3.6873,-3.6862,-3.6872,-3.6874,-3.6876,-3.6878,-3.6809,-3.6877,-3.6876,-3.6876,-3.6876,-3.6876,0,-3.6708,-3.6716,-3.6737,-3.6757,-3.6774,-3.6765,-3.678,-3.6795,-3.6818,-3.683,-3.6847,-3.6874,-3.6895,-3.69,-3.692,-3.6935,-3.693,-3.694,-3.6937,-3.6939,-3.6888,-3.6879,-3.6943,-3.6943,-3.6943,-3.6943,-3.6943,-3.6943,-3.6744,-3.6776,-3.6778,-3.6815,-3.6823,-3.6848,-3.6857,-3.687,-3.688,-3.691,-3.6927,-3.6931,-3.6941,-3.6961,-3.698,-3.6981,-3.6987,-3.6999,-3.6998,-3.6949,-3.6942,-3.6936,-3.6928,-3.7001,-3.7001,-3.7047,-3.7047,-3.7047]},{"header":{"parameterUnit":"m.s-1","parameterCategory":1,"la1":30.2991,"la2":30.254,"lo1":-89.0895,"lo2":-89.0444,"dy":0.0017,"dx":0.0017,"nx":28,"ny":28,"refTime":"2024-05-15T21:00:00:Z","depth":0,"parameterNumber":3,"parameterNumberName":"V-component_of_WINDS"},"data":[0,0,0,0,0,0,0,0,0,0,0,0,0,0,0,0,0,0,0,0,0,0,0,0,0,0,0,0,0,0,0,0,0,0,0,0,0,0,0,0,0,0,0,0,0,0,0,0,0,0,0,0,0,0,0,0,0,0,5.7188,5.7188,0,5.7129,5.7128,5.7128,5.699,5.6987,5.6984,5.6981,5.6926,5.6927,5.6928,0,0,0,0,0,0,0,0,0,0,0,0,0,5.7188,5.7189,5.7188,5.7188,5.7187,5.7129,5.7128,5.7127,5.699,5.6987,5.6983,5.698,5.6925,5.6927,5.6928,0,0,0,0,0,0,0,0,0,0,0,0,0,5.7165,5.7189,5.7188,5.7111,5.7104,5.7129,5.7128,5.7127,5.6991,5.6987,5.6982,5.6978,5.6925,5.6927,5.6928,5.7026,0,0,5.6934,5.6935,0,0,0,0,0,0,0,0,5.7166,5.7165,5.7123,5.7117,5.7108,5.7062,5.7108,5.7093,5.6992,5.7034,5.6981,5.6976,5.6975,5.6972,5.6971,5.7023,5.7021,5.6934,5.6935,5.6936,5.6936,0,0,0,0,0,0,0,5.7168,5.7167,5.7165,5.7123,5.7114,5.7081,5.7073,5.7104,5.703,5.703,5.702,5.7014,5.697,5.697,5.6969,5.702,5.6934,5.6936,5.6937,5.6937,5.715,5.7154,0,0,0,0,0,0,5.718,5.7169,5.7167,5.7163,5.7127,5.7085,5.7076,5.7082,5.7029,5.7016,5.7018,5.7008,5.6969,5.6967,5.6966,5.7076,5.6936,5.6938,5.6939,5.7145,5.7151,5.7156,0,0,0,0,0,0,5.7181,5.7181,5.7169,5.7163,5.7159,5.7089,5.7097,5.7083,5.7082,5.702,5.7006,5.7031,5.6965,5.6964,5.7012,5.7073,5.6938,5.694,5.714,5.7147,5.7153,5.7298,0,0,0,0,0,0,5.7181,5.7182,5.7217,5.7165,5.716,5.7215,5.7101,5.7085,5.7085,5.7071,5.7028,5.7017,5.6962,5.701,5.7013,5.7073,5.6941,5.7134,5.7143,5.7151,5.7288,5.7309,5.7328,0,0,0,0,0,5.7182,5.7261,5.7219,5.722,5.7202,5.7218,5.7216,5.7149,5.709,5.7125,5.7086,5.7018,5.7066,5.7016,5.7019,5.708,5.713,5.714,5.715,5.7279,5.7305,5.7327,0,0,0,0,0,0,5.7324,5.7253,5.7206,5.7271,5.7251,5.7195,5.7237,5.7179,5.7177,5.7164,5.7083,5.7075,5.7134,5.7112,5.7057,5.7171,5.7087,5.7098,5.7184,5.7208,5.7228,5.7232,5.6943,0,0,0,0,0,5.7362,5.738,5.7318,5.7381,5.7374,5.7308,5.7312,5.7262,5.724,5.7231,5.7195,5.7177,5.7188,5.7197,5.7203,5.7284,5.7273,5.7328,5.7348,5.7364,5.7375,5.7417,5.7441,5.7189,5.7189,5.7189,0,0,5.7443,5.7406,5.7423,5.7409,5.7388,5.7409,5.7302,5.7329,5.7345,5.7236,5.7278,5.7252,5.7227,5.7292,5.7319,5.7275,5.7442,5.7377,5.7391,5.7393,5.743,5.7454,5.7475,5.7196,5.7195,5.7194,0,0,5.76,5.7574,5.7624,5.7605,5.7574,5.753,5.7543,5.7495,5.7473,5.7514,5.7433,5.7452,5.7472,5.7457,5.7453,5.7606,5.7545,5.7611,5.7715,5.7757,5.7777,5.7794,5.7849,5.787,5.7622,5.7622,5.7623,0,5.7704,5.7731,5.7657,5.769,5.7687,5.7588,5.7639,5.7625,5.76,5.76,5.7551,5.7575,5.7551,5.7611,5.7649,5.7649,5.7661,5.7615,5.778,5.7796,5.7811,5.7863,5.7884,5.763,5.763,5.7629,5.7628,0,5.7861,5.7882,5.7926,5.7902,5.7904,5.7946,5.788,5.7891,5.7842,5.7804,5.7848,5.7816,5.7815,5.7826,5.7778,5.788,5.7854,5.7794,5.7707,5.7845,5.7892,5.7911,5.7642,5.7639,5.7637,5.7635,0,0,5.8106,5.804,5.8058,5.8046,5.8005,5.8021,5.8059,5.8056,5.8068,5.8054,5.8085,5.8105,5.8049,5.8044,5.7994,5.8031,5.8155,5.7966,5.7964,5.8002,5.8267,5.8312,5.8336,5.8115,5.8118,5.8121,5.8269,0,5.8253,5.8312,5.8247,5.8321,5.834,5.8248,5.8281,5.8261,5.8227,5.824,5.8202,5.8217,5.8142,5.8139,5.8171,5.8134,5.8207,5.8122,5.8144,5.8145,5.8153,5.8361,5.8409,5.855,5.8287,5.829,5.8292,0,5.8433,5.8426,5.8501,5.8456,5.8462,5.8493,5.8485,5.8498,5.8475,5.8447,5.8442,5.8382,5.8418,5.8335,5.8384,5.8328,5.8333,5.8316,5.832,5.832,5.8227,5.8366,5.8593,5.8615,5.8321,5.8318,5.8316,0,5.8604,5.8613,5.8659,5.8652,5.8601,5.8626,5.8606,5.8578,5.858,5.8575,5.8576,5.8576,5.8576,5.8578,5.852,5.8464,5.8578,5.8489,5.8557,5.8559,5.8585,5.8584,5.8816,5.8589,5.8589,5.8588,5.8588,0,5.8775,5.8825,5.8735,5.8764,5.8818,5.8744,5.88,5.8771,5.8747,5.8769,5.8691,5.8714,5.8636,5.8652,5.8607,5.8656,5.8657,5.8637,5.8624,5.8644,5.8646,5.8646,5.8635,5.8594,5.8593,5.8592,5.8591,0,5.8974,5.8916,5.8961,5.8909,5.8897,5.8939,5.8896,5.8921,5.8882,5.8912,5.8915,5.8854,5.8869,5.8811,5.8817,5.8787,5.8859,5.883,5.8867,5.8858,5.8929,5.8924,5.917,5.9198,5.8953,5.8956,5.8958,0,5.9087,5.9123,5.9075,5.9084,5.9068,5.9083,5.9085,5.9015,5.9021,5.8997,5.9026,5.9034,5.9036,5.9064,5.9022,5.9026,5.8997,5.9083,5.8997,5.9016,5.8998,5.8997,5.9001,5.9101,5.9104,5.9106,5.9108,0,5.9294,5.9264,5.9269,5.9265,5.9269,5.9263,5.9251,5.9264,5.9188,5.9199,5.9212,5.9214,5.9219,5.9228,5.9224,5.9205,5.9146,5.9136,5.9152,5.9172,5.9192,5.9182,5.8915,5.913,5.9128,5.9126,5.9125,5.9124,5.9454,5.9482,5.9452,5.9461,5.9445,5.9436,5.9457,5.9421,5.943,5.9427,5.9386,5.9407,5.9384,5.9372,5.9359,5.9377,5.9337,5.936,5.9366,5.9373,5.9385,5.9189,5.9376,5.9375,5.9374,5.9374,5.9373,0,5.9657,5.9633,5.9642,5.9628,5.9635,5.9576,5.9561,5.9572,5.9591,5.9574,5.9578,5.9594,5.9603,5.9562,5.9565,5.9587,5.956,5.9591,5.9589,5.9586,5.9421,5.9406,5.9613,5.9613,5.9613,5.9613,5.9613,5.9613,5.9763,5.9807,5.9774,5.981,5.9786,5.9806,5.9802,5.9795,5.978,5.9801,5.9808,5.978,5.9754,5.9755,5.9761,5.9749,5.9754,5.9795,5.9774,5.962,5.9597,5.9575,5.9561,5.9797,5.9797,5.9937,5.9938,5.9939]}]]